Location: Bazugues
(43.4465°N, 0.3432°E)
Time: 17:40:59
(UTC+00:00)

ERS-1 - Visible Passes

Search period start: 11 April 2026 00:00
Search period end: 21 April 2026 00:00
Orbit: 737 x 784 km, 98.8° (Epoch: 11 April)

Date Brightness Start Highest point End Pass type
(mag) Time Alt. Az. Time Alt. Az. Time Alt. Az.
13 Apr 7.3 19:20:14 10° SW 19:23:40 18° W 19:27:06 10° NW visible
15 Apr 7.7 19:45:01 10° WSW 19:46:22 11° W 19:47:43 10° WNW visible
18 Apr 7.3 19:27:20 10° SW 19:30:23 16° W 19:33:25 10° NW visible
